Wind_Speed
10 9 9 9 10 10 11 11 12 11 12 12 12 11 11 11 11 10 11 11 10 10 9 8 8 8 9 9 8 9 9 9 10 9 10 10 11 12 12 12 13 13 13
10 10 10 10 10 10 11 11 11 11 12 12 12 12 12 12 12 12 12 11 11 11 11 10 10 9 9 10 10 10 10 10 10 10 10 11 11 12 12 13 13 13 13
11 11 11 11 10 10 11 11 11 11 11 13 13 13 13 12 12 12 13 12 12 12 12 11 10 10 10 11 11 11 11 12 11 11 12 12 12 12 12 13 14 14 14
11 11 11 10 10 10 10 11 12 12 12 13 14 14 14 13 12 12 13 13 13 13 13 12 12 11 11 12 12 12 12 12 12 13 13 14 14 13 13 14 14 15 15
11 11 11 10 10 10 10 11 12 12 13 13 13 14 13 13 13 13 14 14 14 14 13 13 12 12 12 12 13 13 14 13 13 13 14 15 15 15 14 15 15 15 15
12 12 11 10 10 10 10 10 11 12 13 14 14 14 14 14 14 14 14 14 14 14 14 14 14 13 13 13 13 14 15 14 14 14 14 15 15 15 15 15 15 16 15
11 11 11 11 11 11 10 10 11 12 12 13 13 14 15 15 15 14 14 15 15 15 15 14 14 14 14 14 14 14 14 15 15 15 15 15 15 15 15 15 15 15 16
11 11 12 12 11 11 11 11 11 11 12 13 13 13 14 14 15 15 15 15 16 16 16 15 15 15 15 15 15 15 15 16 15 16 16 16 16 15 15 16 15 16 17
10 11 11 11 11 11 11 11 11 12 13 13 13 13 13 13 14 14 15 16 16 16 16 16 16 16 17 17 17 17 17 16 16 16 16 16 16 16 16 16 16 17 18
10 10 10 11 11 11 10 11 12 13 13 13 13 13 14 14 15 15 15 16 16 17 17 18 18 18 18 18 18 18 18 18 17 17 16 16 15 16 17 16 17 18 19
10 10 10 10 11 11 11 11 12 12 13 13 13 13 13 14 14 14 15 16 16 17 17 18 19 19 19 18 18 19 19 18 18 17 16 16 16 16 18 18 18 19 19
10 10 9 9 10 10 10 11 11 11 12 13 13 13 13 14 14 14 14 15 15 16 17 17 18 19 19 19 19 19 20 19 19 17 16 17 17 17 18 19 19 20 20
9 9 9 9 9 9 9 10 10 10 11 12 12 12 13 13 14 14 15 16 16 16 16 15 16 17 18 19 18 19 19 18 19 18 18 18 18 18 19 19 20 20 21
9 10 9 8 9 9 9 9 9 9 10 11 11 12 12 13 14 14 15 15 16 16 16 16 17 17 17 17 18 19 19 19 19 19 19 19 19 19 19 20 20 20 21
9 9 8 8 8 8 8 8 9 10 10 11 11 11 12 12 13 13 14 14 14 15 16 17 17 17 17 18 18 19 19 20 19 20 20 19 19 20 20 20 21 21 21
8 8 8 8 8 8 8 9 10 10 11 11 11 12 12 12 12 12 12 13 13 14 15 16 16 16 16 16 18 19 19 19 19 19 20 19 20 20 20 21 21 21 21
8 8 8 8 9 9 9 9 9 10 10 10 11 12 12 12 12 12 12 13 13 14 14 15 15 16 16 17 17 17 18 18 18 18 19 19 19 20 21 21 21 21 21
9 9 8 9 10 10 9 9 9 9 8 9 10 11 11 11 12 12 12 13 13 14 14 14 15 16 16 16 16 17 18 18 19 19 18 18 19 19 20 21 21 21 22
9 9 9 10 10 10 10 10 10 9 9 9 10 10 10 10 11 12 12 12 12 13 13 13 14 15 15 16 17 17 18 18 18 18 18 18 19 19 19 21 21 22 22
10 10 11 11 10 10 10 10 10 10 10 9 9 9 9 9 10 11 12 12 12 12 13 13 13 14 15 16 16 17 18 18 18 19 18 19 19 19 20 21 21 21 21
13 12 12 12 12 12 12 11 11 11 11 11 10 10 10 10 11 11 12 12 12 13 13 13 13 14 15 16 16 17 18 18 18 19 19 19 19 19 20 20 20 21 21
15 14 13 13 14 13 13 13 13 13 12 12 12 12 12 12 13 13 13 13 13 13 13 14 14 15 16 16 17 17 18 19 19 19 19 19 20 20 21 21 21 21 22
16 16 15 15 15 16 15 15 15 14 14 13 14 14 13 13 14 14 14 14 14 14 15 15 16 17 17 18 18 18 19 20 20 20 20 20 20 21 21 21 22 22 22
17 17 17 16 17 17 16 16 16 16 15 15 15 15 15 15 16 16 15 15 16 16 16 17 17 17 18 18 19 20 20 21 21 21 21 21 21 21 22 23 23 23 24
18 17 17 16 17 17 16 17 17 17 17 16 16 16 17 17 17 17 17 17 17 17 18 18 18 18 19 19 20 21 21 21 22 22 22 22 22 22 23 23 24 24 24
17 17 17 17 17 18 17 18 18 19 19 18 18 18 18 19 19 18 18 18 18 19 19 19 19 20 20 21 21 22 22 22 23 23 23 23 24 24 24 24 24 24 24
Wind_Direction
285 281 277 280 278 270 263 263 264 263 258 253 250 248 244 241 246 247 247 248 250 253 255 260 258 255 248 250 253 249 248 248 244 246 246 250 249 252 255 256 258 255 255
282 281 279 281 280 272 266 262 260 258 254 249 249 250 248 245 245 248 252 250 251 254 256 258 261 257 251 247 253 251 252 256 254 251 254 257 255 253 258 262 261 259 257
281 281 279 282 279 275 266 261 261 255 251 250 252 250 250 248 246 249 253 251 252 255 256 256 257 259 255 251 251 251 255 257 256 257 260 261 261 263 263 265 265 261 261
280 282 280 277 275 270 265 260 258 253 253 255 253 250 250 250 252 252 253 253 255 256 258 259 257 262 259 256 255 256 255 258 260 263 264 264 265 268 266 266 268 263 261
278 280 280 278 273 268 265 260 255 252 252 255 253 250 251 253 253 255 254 253 255 256 256 258 260 263 261 257 259 263 263 263 264 266 266 268 270 271 268 268 269 266 263
278 276 278 279 275 270 268 265 257 256 256 256 255 255 254 253 253 255 255 252 253 253 254 256 257 261 261 258 259 266 265 265 265 268 270 270 269 269 268 267 268 266 263
279 277 276 277 274 270 269 269 263 261 262 262 261 258 253 253 254 254 254 253 253 253 253 254 255 257 260 262 260 263 262 263 269 270 271 270 267 267 268 265 267 266 267
275 275 275 275 273 269 269 270 266 264 266 264 262 258 256 253 252 253 253 253 253 253 254 254 255 256 260 261 261 262 265 266 270 269 271 273 269 267 269 268 268 269 269
278 276 274 273 271 269 268 268 267 266 267 265 262 258 255 253 253 254 253 254 255 254 255 255 256 258 259 260 263 264 263 266 270 271 273 274 271 267 268 268 268 270 269
280 278 275 273 271 271 271 271 270 267 268 265 263 259 257 256 256 257 257 259 258 256 256 254 256 258 258 259 263 267 269 270 272 273 274 275 273 270 267 267 269 272 271
276 278 278 274 273 272 272 273 272 267 265 262 261 261 259 258 258 259 261 261 260 258 256 256 256 258 259 261 264 267 268 270 270 271 274 275 275 274 271 267 271 272 270
273 275 274 275 277 276 274 275 273 269 264 260 258 259 260 259 260 260 261 261 261 260 257 257 259 260 261 262 266 270 270 271 268 269 273 274 274 274 271 269 270 272 269
269 271 269 272 277 276 278 277 271 269 264 261 261 262 262 260 261 262 262 264 263 262 261 261 264 263 265 264 266 269 270 270 271 271 273 274 273 273 271 271 272 271 268
268 269 266 266 273 276 279 278 272 269 267 268 266 265 264 261 260 262 264 264 262 262 262 264 265 266 268 265 265 267 270 273 275 275 276 277 277 278 272 270 274 275 271
268 268 265 269 270 278 281 278 274 271 267 269 268 268 266 264 262 264 264 263 263 262 263 264 265 266 267 266 267 269 273 276 278 278 278 278 277 278 275 275 275 276 274
270 269 267 268 272 278 281 281 279 274 270 269 267 269 267 262 259 263 266 267 266 267 267 265 265 266 266 268 271 273 277 277 278 278 280 282 280 280 279 279 277 275 273
267 268 266 267 273 275 279 283 285 284 275 269 266 268 267 263 258 262 267 268 270 270 268 267 268 268 267 270 274 277 278 279 281 283 282 282 280 281 280 278 275 272 271
264 267 268 270 273 274 276 282 285 286 281 278 273 269 265 264 266 267 271 271 271 269 268 270 273 271 270 273 275 276 277 280 281 282 284 285 282 281 281 279 277 277 275
264 269 271 274 278 278 278 279 278 280 282 282 283 278 275 269 269 273 274 274 272 271 270 274 276 276 273 275 277 278 279 280 281 283 284 284 283 280 281 281 282 280 279
266 268 273 276 280 280 280 276 273 272 275 282 284 283 282 280 277 278 280 277 275 274 274 275 279 280 278 279 280 281 281 282 282 282 282 284 287 287 284 282 283 282 282
263 267 272 273 278 279 276 273 273 273 273 276 278 280 282 282 282 283 285 282 280 278 277 275 279 282 281 281 280 282 282 284 284 282 282 284 286 286 285 284 283 283 284
264 266 269 272 275 275 274 272 272 272 273 273 274 277 279 280 281 283 285 283 282 279 278 279 282 284 283 284 283 283 284 285 285 284 283 284 285 285 285 285 285 286 288
263 263 267 270 274 272 272 272 269 267 270 272 273 273 274 278 281 281 280 281 281 281 279 281 285 286 285 285 286 286 287 287 287 284 283 285 285 284 285 287 287 287 288
263 262 264 269 272 272 271 269 267 266 268 270 270 272 273 276 280 281 280 280 281 282 282 282 285 286 287 286 287 288 288 287 288 285 283 284 284 286 286 286 287 287 288
266 265 265 268 270 271 270 267 266 267 268 268 269 271 273 276 277 278 279 280 280 281 282 284 286 287 289 290 289 289 288 288 288 286 285 285 285 284 285 285 286 287 289
265 265 264 266 268 270 271 268 267 268 269 269 269 271 274 275 277 278 280 281 281 281 282 283 284 285 288 290 290 291 291 290 289 288 286 286 286 286 286 288 288 288 289
Height
5859 5859 5859 5859 5859 5859 5859 5859 5860 5860 5861 5861 5862 5863 5864 5865 5866 5867 5867 5868 5869 5869 5869 5869 5869 5870 5870 5871 5871 5871 5872 5873 5872 5873 5874 5874 5875 5875 5875 5876 5876 5877 5877
5857 5857 5857 5857 5856 5856 5857 5857 5857 5858 5858 5859 5860 5860 5861 5862 5863 5864 5865 5866 5866 5867 5867 5867 5868 5868 5868 5869 5869 5869 5870 5871 5871 5871 5872 5872 5872 5872 5872 5873 5873 5873 5874
5854 5854 5854 5854 5854 5854 5854 5854 5855 5855 5856 5857 5857 5858 5859 5860 5861 5861 5862 5863 5864 5864 5865 5865 5865 5865 5866 5866 5866 5867 5868 5868 5869 5869 5869 5870 5870 5869 5870 5870 5870 5870 5870
5852 5852 5852 5852 5851 5851 5851 5852 5852 5853 5853 5854 5854 5855 5856 5857 5858 5859 5859 5860 5861 5861 5862 5862 5863 5863 5863 5864 5864 5864 5865 5866 5866 5866 5867 5867 5867 5866 5866 5867 5867 5867 5867
5849 5849 5849 5849 5849 5849 5849 5849 5849 5850 5850 5851 5851 5852 5853 5854 5855 5855 5856 5857 5857 5858 5859 5859 5860 5860 5861 5861 5862 5862 5862 5863 5863 5863 5863 5863 5863 5863 5863 5863 5863 5863 5863
5846 5846 5846 5846 5846 5846 5846 5846 5846 5847 5847 5848 5848 5849 5850 5850 5851 5852 5853 5853 5854 5855 5855 5856 5857 5858 5858 5858 5859 5859 5859 5859 5859 5860 5860 5860 5860 5859 5859 5859 5859 5859 5859
5843 5843 5843 5843 5843 5843 5844 5844 5844 5844 5844 5844 5845 5845 5846 5847 5848 5849 5849 5850 5851 5851 5852 5853 5854 5854 5855 5855 5856 5856 5856 5856 5856 5856 5856 5856 5856 5856 5855 5855 5855 5855 5855
5841 5841 5841 5841 5840 5840 5840 5841 5841 5841 5841 5841 5841 5842 5842 5844 5844 5845 5846 5846 5847 5848 5848 5849 5850 5851 5851 5851 5852 5852 5852 5852 5852 5852 5852 5852 5852 5852 5852 5851 5851 5851 5851
5838 5838 5838 5838 5838 5837 5837 5837 5837 5837 5838 5838 5838 5838 5839 5840 5840 5841 5842 5843 5843 5844 5845 5845 5846 5847 5847 5847 5848 5848 5848 5848 5848 5848 5848 5848 5848 5847 5847 5847 5847 5847 5847
5835 5835 5835 5835 5835 5834 5834 5834 5834 5834 5834 5834 5834 5835 5836 5836 5837 5838 5839 5839 5839 5840 5841 5841 5842 5842 5842 5843 5844 5844 5844 5844 5844 5844 5843 5843 5843 5843 5843 5843 5843 5843 5842
5833 5832 5832 5832 5831 5831 5831 5831 5830 5830 5831 5831 5831 5831 5832 5832 5833 5834 5835 5835 5836 5836 5836 5837 5837 5838 5838 5839 5839 5840 5840 5840 5840 5839 5839 5839 5839 5839 5838 5838 5838 5837 5837
5830 5830 5829 5829 5828 5828 5827 5827 5827 5827 5827 5827 5827 5828 5829 5829 5830 5830 5831 5831 5831 5832 5832 5833 5833 5833 5834 5834 5835 5835 5835 5835 5835 5834 5834 5834 5834 5833 5833 5833 5833 5832 5832
5828 5827 5827 5826 5825 5825 5824 5824 5824 5823 5824 5824 5824 5825 5825 5826 5826 5827 5827 5827 5827 5828 5829 5829 5829 5829 5829 5830 5830 5831 5831 5830 5830 5830 5829 5829 5828 5828 5828 5828 5827 5826 5826
5825 5825 5824 5824 5823 5822 5822 5821 5821 5821 5821 5821 5821 5821 5821 5822 5822 5822 5823 5823 5824 5824 5825 5825 5825 5825 5825 5826 5826 5826 5826 5826 5825 5825 5824 5823 5823 5823 5822 5822 5821 5820 5820
5822 5822 5822 5821 5821 5820 5819 5819 5818 5818 5818 5818 5818 5818 5818 5819 5819 5819 5819 5819 5820 5820 5821 5821 5821 5821 5821 5821 5821 5821 5821 5821 5821 5820 5820 5819 5818 5817 5817 5816 5816 5815 5814
5820 5820 5819 5819 5819 5818 5817 5817 5816 5816 5816 5816 5816 5816 5816 5815 5815 5815 5815 5815 5815 5816 5816 5816 5816 5816 5816 5817 5817 5817 5816 5816 5816 5815 5815 5814 5813 5812 5811 5811 5810 5810 5809
5817 5817 5817 5817 5817 5816 5815 5815 5814 5814 5814 5814 5813 5813 5813 5813 5812 5812 5812 5812 5812 5812 5812 5812 5812 5812 5812 5813 5813 5812 5812 5811 5811 5810 5810 5809 5808 5807 5806 5805 5804 5804 5803
5815 5815 5815 5814 5814 5814 5813 5813 5812 5812 5812 5811 5811 5810 5810 5809 5810 5809 5808 5808 5808 5808 5808 5808 5808 5808 5808 5808 5808 5808 5807 5807 5806 5805 5805 5804 5803 5802 5800 5799 5799 5798 5798
5812 5812 5812 5812 5812 5811 5811 5810 5810 5810 5809 5809 5808 5808 5807 5807 5806 5806 5805 5805 5805 5805 5805 5805 5805 5804 5804 5804 5804 5804 5803 5802 5802 5800 5799 5799 5797 5796 5795 5794 5793 5793 5792
5809 5809 5810 5810 5809 5809 5808 5808 5808 5807 5807 5806 5806 5805 5805 5804 5804 5803 5802 5802 5801 5801 5802 5802 5801 5801 5801 5800 5800 5799 5799 5798 5797 5796 5795 5794 5792 5791 5790 5789 5788 5787 5786
5806 5806 5806 5806 5806 5806 5805 5805 5805 5805 5804 5804 5803 5802 5802 5801 5801 5800 5799 5799 5798 5798 5798 5798 5798 5797 5797 5796 5796 5795 5794 5793 5792 5791 5790 5789 5787 5786 5785 5784 5783 5782 5781
5802 5802 5802 5803 5803 5802 5802 5802 5802 5801 5801 5801 5800 5800 5799 5798 5798 5797 5796 5795 5795 5795 5795 5795 5794 5793 5793 5792 5791 5791 5790 5789 5788 5787 5785 5784 5782 5781 5780 5779 5777 5776 5775
5797 5798 5798 5798 5798 5798 5798 5798 5798 5797 5797 5797 5796 5796 5796 5795 5795 5794 5793 5792 5792 5791 5791 5791 5790 5789 5789 5788 5787 5786 5784 5783 5782 5781 5780 5778 5777 5776 5775 5773 5772 5770 5769
5793 5793 5793 5794 5794 5794 5793 5793 5793 5793 5793 5793 5792 5792 5792 5791 5791 5790 5790 5789 5788 5788 5787 5786 5786 5785 5784 5783 5782 5781 5779 5778 5777 5775 5774 5773 5772 5770 5769 5767 5766 5764 5763
5788 5788 5789 5789 5789 5789 5789 5789 5789 5788 5788 5788 5788 5788 5788 5787 5787 5786 5786 5785 5784 5783 5783 5782 5781 5780 5779 5777 5776 5775 5774 5772 5771 5769 5768 5767 5765 5764 5763 5761 5759 5758 5756
5783 5784 5784 5784 5784 5784 5784 5784 5784 5783 5783 5783 5783 5783 5783 5783 5782 5781 5781 5780 5780 5779 5778 5777 5776 5775 5774 5772 5770 5769 5767 5766 5764 5763 5761 5760 5759 5757 5756 5755 5753 5751 5749